When you browse on this site, cookies collect data to enhance your experience and personalize the content and advertising you see.
Visit our Privacy Policy to learn more. By continuing to use the site, you agree to this use of cookies and data.
  • In Lithuania
  • List of Countries
  • For 7 days
  • Water Temperature
  • Satellite Maps
  • Weather Map
  • Weather Widgets
  • user-avatar
    Login

    Hourly Weather Saban-Antusta

    Today, 11 December, Tuesday

    Time Temperature Precipitation Wind Pressure Humidity
    00:00 +2°C° 0 mm 5 mps 748 mmHg 88%
    01:00 +3°C° 0 mm 4 mps 748 mmHg 89%
    02:00 +3°C° 0 mm 4 mps 748 mmHg 89%
    03:00 +1°C° 0 mm 4 mps 747 mmHg 86%
    04:00 +1°C° 0 mm 4 mps 747 mmHg 87%
    05:00 +1°C° 0 mm 4 mps 747 mmHg 87%
    06:00 +1°C° 0 mm 4 mps 747 mmHg 87%
    07:00 +1°C° 0 mm 4 mps 747 mmHg 88%
    08:00 +1°C° 0 mm 4 mps 746 mmHg 88%
    09:00 +1°C° 0 mm 4 mps 746 mmHg 88%
    10:00 +3°C° 0 mm 4 mps 745 mmHg 87%
    11:00 +3°C° 0 mm 5 mps 745 mmHg 87%
    12:00 +3°C° 0 mm 5 mps 744 mmHg 86%
    13:00 +5°C° 0 mm 5 mps 744 mmHg 87%
    14:00 +5°C° 0 mm 5 mps 743 mmHg 89%
    15:00 +5°C° 0 mm 6 mps 742 mmHg 90%
    16:00 +6°C° 0 mm 5 mps 742 mmHg 91%
    17:00 +6°C° 0 mm 4 mps 742 mmHg 93%
    18:00 +7°C° 0 mm 3 mps 742 mmHg 94%
    19:00 +7°C° 0 mm 3 mps 743 mmHg 95%
    20:00 +7°C° 0 mm 3 mps 743 mmHg 95%
    21:00 +5°C° 0 mm 3 mps 743 mmHg 95%
    22:00 +5°C° 0 mm 3 mps 743 mmHg 96%
    23:00 +6°C° 0 mm 2 mps 744 mmHg 96%

    Tomorrow, 12 December, Wednesday

    Time Temperature Precipitation Wind Pressure Humidity
    00:00 +6°C° 0 mm 2 mps 744 mmHg 96%
    01:00 +7°C° 0 mm 1 mps 744 mmHg 96%
    02:00 +6°C° 0 mm 1 mps 745 mmHg 96%
    03:00 +6°C° 0 mm 1 mps 745 mmHg 96%
    04:00 +6°C° 0 mm 1 mps 745 mmHg 96%
    05:00 +6°C° 0 mm 1 mps 745 mmHg 96%
    06:00 +5°C° 0 mm 1 mps 745 mmHg 96%
    07:00 +6°C° 0 mm 1 mps 746 mmHg 96%
    08:00 +6°C° 0 mm 1 mps 746 mmHg 95%
    09:00 +6°C° 0 mm 1 mps 746 mmHg 95%
    10:00 +6°C° 0 mm 2 mps 746 mmHg 89%
    11:00 +7°C° 0 mm 2 mps 745 mmHg 84%
    12:00 +8°C° 0 mm 3 mps 745 mmHg 79%
    13:00 +8°C° 0 mm 3 mps 745 mmHg 78%
    14:00 +8°C° 0 mm 3 mps 745 mmHg 78%
    15:00 +8°C° 0 mm 3 mps 745 mmHg 78%
    16:00 +7°C° 0.2 mm 3 mps 746 mmHg 81%
    17:00 +7°C° 0.2 mm 3 mps 746 mmHg 85%
    18:00 +5°C° 0.2 mm 4 mps 746 mmHg 88%
    19:00 +5°C° 0.3 mm 3 mps 746 mmHg 88%
    20:00 +4°C° 0.3 mm 3 mps 747 mmHg 89%
    21:00 +5°C° 0.3 mm 2 mps 747 mmHg 90%
    22:00 +4°C° 0.5 mm 3 mps 747 mmHg 90%
    23:00 +4°C° 0.5 mm 4 mps 747 mmHg 90%

    Day after tomorrow, 13 December, Thursday

    Time Temperature Precipitation Wind Pressure Humidity
    00:00 +3°C° 0.5 mm 5 mps 748 mmHg 90%
    01:00 +3°C° 0.5 mm 5 mps 748 mmHg 89%
    02:00 +3°C° 0.5 mm 5 mps 748 mmHg 87%
    03:00 +2°C° 0.5 mm 5 mps 748 mmHg 86%
    04:00 +2°C° 0.8 mm 5 mps 749 mmHg 86%
    05:00 +2°C° 0.8 mm 5 mps 749 mmHg 85%
    06:00 +2°C° 0.8 mm 5 mps 749 mmHg 84%
    07:00 +2°C° 0.5 mm 5 mps 750 mmHg 83%
    08:00 +2°C° 0.5 mm 5 mps 750 mmHg 82%
    09:00 +2°C° 0.5 mm 5 mps 751 mmHg 80%
    10:00 +2°C° 0.2 mm 5 mps 751 mmHg 78%
    11:00 +2°C° 0.2 mm 5 mps 751 mmHg 76%
    12:00 +3°C° 0.2 mm 5 mps 751 mmHg 73%
    13:00 +3°C° 0 mm 5 mps 752 mmHg 72%
    14:00 +3°C° 0 mm 5 mps 752 mmHg 71%
    15:00 +3°C° 0 mm 5 mps 752 mmHg 70%
    16:00 +3°C° 0 mm 4 mps 753 mmHg 74%
    17:00 +1°C° 0 mm 4 mps 753 mmHg 77%
    18:00 +2°C° 0 mm 3 mps 754 mmHg 81%
    19:00 +1°C° 0 mm 3 mps 754 mmHg 82%
    20:00 +1°C° 0 mm 3 mps 754 mmHg 83%
    21:00 +1°C° 0 mm 3 mps 755 mmHg 84%
    22:00 +1°C° 0 mm 3 mps 755 mmHg 84%
    23:00 0°C° 0 mm 4 mps 755 mmHg 84%

    14 December, Friday

    Time Temperature Precipitation Wind Pressure Humidity
    00:00 0°C° 0 mm 4 mps 755 mmHg 84%
    01:00 0°C° 0 mm 3 mps 756 mmHg 85%
    02:00 0°C° 0 mm 3 mps 756 mmHg 85%
    03:00 0°C° 0 mm 3 mps 756 mmHg 86%
    04:00 0°C° 0 mm 3 mps 756 mmHg 87%
    05:00 0°C° 0 mm 3 mps 756 mmHg 88%
    06:00 -1°C° 0 mm 2 mps 756 mmHg 89%
    07:00 0°C° 0 mm 3 mps 756 mmHg 87%
    08:00 0°C° 0 mm 3 mps 756 mmHg 85%
    09:00 0°C° 0 mm 3 mps 757 mmHg 83%
    10:00 +1°C° 0 mm 3 mps 756 mmHg 76%
    11:00 +2°C° 0 mm 3 mps 756 mmHg 69%
    12:00 +4°C° 0 mm 3 mps 756 mmHg 62%
    13:00 +4°C° 0 mm 3 mps 756 mmHg 61%
    14:00 +5°C° 0 mm 2 mps 756 mmHg 59%
    15:00 +5°C° 0 mm 2 mps 756 mmHg 58%
    16:00 +4°C° 0 mm 2 mps 756 mmHg 62%
    17:00 +4°C° 0 mm 1 mps 756 mmHg 66%
    18:00 +3°C° 0 mm 1 mps 757 mmHg 70%
    19:00 +3°C° 0 mm 1 mps 757 mmHg 71%
    20:00 +3°C° 0 mm 1 mps 757 mmHg 72%
    21:00 +2°C° 0 mm 2 mps 757 mmHg 73%
    22:00 +2°C° 0 mm 2 mps 757 mmHg 74%
    23:00 +2°C° 0 mm 2 mps 757 mmHg 75%

    15 December, Saturday

    Time Temperature Precipitation Wind Pressure Humidity
    00:00 +1°C° 0 mm 2 mps 757 mmHg 76%
    01:00 +1°C° 0 mm 2 mps 757 mmHg 77%
    02:00 +1°C° 0 mm 2 mps 757 mmHg 78%
    03:00 +1°C° 0 mm 2 mps 758 mmHg 78%
    04:00 +1°C° 0 mm 2 mps 758 mmHg 79%
    05:00 +1°C° 0 mm 2 mps 758 mmHg 80%
    06:00 +1°C° 0 mm 2 mps 758 mmHg 81%
    07:00 0°C° 0 mm 3 mps 758 mmHg 79%
    08:00 +1°C° 0 mm 3 mps 758 mmHg 78%
    09:00 +1°C° 0 mm 3 mps 759 mmHg 77%
    10:00 +1°C° 0 mm 4 mps 759 mmHg 73%
    11:00 +3°C° 0 mm 4 mps 759 mmHg 70%
    12:00 +3°C° 0 mm 5 mps 759 mmHg 66%
    13:00 +3°C° 0 mm 5 mps 759 mmHg 66%
    14:00 +3°C° 0 mm 5 mps 759 mmHg 67%
    15:00 +3°C° 0 mm 5 mps 759 mmHg 67%
    16:00 +3°C° 0 mm 4 mps 760 mmHg 72%
    17:00 +2°C° 0 mm 3 mps 760 mmHg 77%
    18:00 +1°C° 0 mm 3 mps 761 mmHg 83%
    19:00 0°C° 0 mm 3 mps 761 mmHg 84%
    20:00 +1°C° 0 mm 2 mps 761 mmHg 86%
    21:00 -1°C° 0 mm 2 mps 761 mmHg 88%
    22:00 -1°C° 0 mm 2 mps 762 mmHg 88%
    23:00 -1°C° 0 mm 2 mps 762 mmHg 89%

    16 December, Sunday

    Time Temperature Precipitation Wind Pressure Humidity
    00:00 -2°C° 0 mm 2 mps 762 mmHg 89%
    01:00 -2°C° 0 mm 2 mps 762 mmHg 89%
    02:00 -2°C° 0 mm 2 mps 762 mmHg 88%
    03:00 -2°C° 0 mm 2 mps 762 mmHg 87%
    04:00 -2°C° 0 mm 2 mps 762 mmHg 86%
    05:00 -2°C° 0 mm 2 mps 763 mmHg 85%
    06:00 -2°C° 0 mm 2 mps 763 mmHg 84%
    07:00 -2°C° 0 mm 2 mps 763 mmHg 82%
    08:00 -2°C° 0 mm 3 mps 763 mmHg 80%
    09:00 -2°C° 0 mm 3 mps 764 mmHg 79%
    10:00 -2°C° 0 mm 3 mps 764 mmHg 76%
    11:00 -1°C° 0 mm 3 mps 763 mmHg 73%
    12:00 -1°C° 0 mm 3 mps 763 mmHg 71%
    13:00 -2°C° 0 mm 4 mps 763 mmHg 71%
    14:00 -2°C° 0 mm 4 mps 763 mmHg 71%
    15:00 -2°C° 0 mm 4 mps 763 mmHg 71%
    16:00 -2°C° 0 mm 4 mps 763 mmHg 73%
    17:00 -2°C° 0 mm 4 mps 763 mmHg 74%
    18:00 -3°C° 0 mm 4 mps 764 mmHg 76%
    19:00 -3°C° 0 mm 4 mps 764 mmHg 77%
    20:00 -3°C° 0 mm 4 mps 763 mmHg 78%
    21:00 -4°C° 0 mm 5 mps 763 mmHg 79%
    22:00 -4°C° 0 mm 5 mps 763 mmHg 80%
    23:00 -4°C° 0 mm 5 mps 763 mmHg 80%
    Show more